When you browse on this site, cookies collect data to enhance your experience and personalize the content and advertising you see.
Visit our Privacy Policy to learn more. By continuing to use the site, you agree to this use of cookies and data.
  • In Hungary
  • List of Countries
  • For 7 days
  • Water Temperature
  • Satellite Maps
  • Weather Map
  • News
  • Weather Widgets
  • user-avatar
    Login

    Hourly Weather Sadek

    Today, 21 May, Tuesday

    Time Temperature Precipitation Wind Pressure Humidity
    00:00 +13°C° 0 mm 1 mps 728 mmHg 92%
    01:00 +12°C° 0 mm 1 mps 728 mmHg 92%
    02:00 +12°C° 0 mm 1 mps 728 mmHg 92%
    03:00 +12°C° 0 mm 1 mps 728 mmHg 92%
    04:00 +12°C° 0 mm 1 mps 728 mmHg 92%
    05:00 +13°C° 0 mm 1 mps 728 mmHg 90%
    06:00 +14°C° 0 mm 2 mps 728 mmHg 88%
    07:00 +15°C° 0 mm 2 mps 727 mmHg 87%
    08:00 +14°C° 0.9 mm 3 mps 727 mmHg 87%
    09:00 +14°C° 0.9 mm 3 mps 727 mmHg 88%
    10:00 +15°C° 0.9 mm 4 mps 727 mmHg 88%
    11:00 +14°C° 2.2 mm 4 mps 727 mmHg 89%
    12:00 +14°C° 2.2 mm 5 mps 727 mmHg 90%
    13:00 +14°C° 2.2 mm 5 mps 726 mmHg 91%
    14:00 +14°C° 1.5 mm 5 mps 726 mmHg 90%
    15:00 +14°C° 1.5 mm 5 mps 726 mmHg 90%
    16:00 +14°C° 1.5 mm 5 mps 726 mmHg 89%
    17:00 +14°C° 1.1 mm 5 mps 726 mmHg 89%
    18:00 +14°C° 1.1 mm 5 mps 725 mmHg 88%
    19:00 +14°C° 1.1 mm 5 mps 725 mmHg 88%
    20:00 +14°C° 1.3 mm 5 mps 725 mmHg 89%
    21:00 +14°C° 1.3 mm 6 mps 726 mmHg 91%
    22:00 +13°C° 1.3 mm 6 mps 726 mmHg 93%
    23:00 +13°C° 0.4 mm 5 mps 726 mmHg 93%

    Tomorrow, 22 May, Wednesday

    Time Temperature Precipitation Wind Pressure Humidity
    00:00 +13°C° 0.4 mm 5 mps 726 mmHg 94%
    01:00 +13°C° 0.4 mm 5 mps 726 mmHg 94%
    02:00 +13°C° 0.6 mm 4 mps 726 mmHg 95%
    03:00 +13°C° 0.6 mm 4 mps 725 mmHg 95%
    04:00 +13°C° 0.6 mm 3 mps 725 mmHg 95%
    05:00 +13°C° 0.8 mm 3 mps 726 mmHg 94%
    06:00 +14°C° 0.8 mm 4 mps 726 mmHg 92%
    07:00 +14°C° 0.8 mm 4 mps 726 mmHg 90%
    08:00 +14°C° 0.4 mm 4 mps 726 mmHg 90%
    09:00 +14°C° 0.4 mm 4 mps 727 mmHg 90%
    10:00 +14°C° 0.4 mm 4 mps 727 mmHg 89%
    11:00 +14°C° 0.2 mm 4 mps 727 mmHg 89%
    12:00 +14°C° 0.2 mm 4 mps 727 mmHg 88%
    13:00 +14°C° 0.2 mm 4 mps 727 mmHg 87%
    14:00 +15°C° 0.1 mm 5 mps 727 mmHg 86%
    15:00 +15°C° 0.1 mm 5 mps 727 mmHg 85%
    16:00 +15°C° 0.1 mm 5 mps 727 mmHg 84%
    17:00 +15°C° 0.9 mm 5 mps 727 mmHg 86%
    18:00 +14°C° 0.9 mm 5 mps 727 mmHg 89%
    19:00 +14°C° 0.9 mm 4 mps 727 mmHg 91%
    20:00 +14°C° 0.9 mm 4 mps 728 mmHg 92%
    21:00 +13°C° 0.9 mm 4 mps 728 mmHg 94%
    22:00 +13°C° 0.9 mm 4 mps 729 mmHg 96%
    23:00 +13°C° 0.9 mm 4 mps 729 mmHg 96%

    Day after tomorrow, 23 May, Thursday

    Time Temperature Precipitation Wind Pressure Humidity
    00:00 +13°C° 0.9 mm 5 mps 729 mmHg 96%
    01:00 +13°C° 0.9 mm 5 mps 729 mmHg 96%
    02:00 +13°C° 0.6 mm 5 mps 730 mmHg 96%
    03:00 +13°C° 0.6 mm 5 mps 730 mmHg 96%
    04:00 +13°C° 0.6 mm 5 mps 730 mmHg 95%
    05:00 +14°C° 1 mm 5 mps 730 mmHg 95%
    06:00 +14°C° 1 mm 5 mps 731 mmHg 94%
    07:00 +14°C° 1 mm 6 mps 731 mmHg 93%
    08:00 +14°C° 1.1 mm 6 mps 732 mmHg 92%
    09:00 +14°C° 1.1 mm 6 mps 732 mmHg 91%
    10:00 +15°C° 1.1 mm 6 mps 732 mmHg 91%
    11:00 +15°C° 0.9 mm 7 mps 733 mmHg 90%
    12:00 +15°C° 0.9 mm 7 mps 733 mmHg 90%
    13:00 +15°C° 0.9 mm 8 mps 733 mmHg 90%
    14:00 +13°C° 0.2 mm 8 mps 733 mmHg 90%
    15:00 +12°C° 0.2 mm 7 mps 733 mmHg 91%
    16:00 +12°C° 0.2 mm 7 mps 733 mmHg 92%
    17:00 +12°C° 0.1 mm 7 mps 733 mmHg 92%
    18:00 +11°C° 0.1 mm 7 mps 734 mmHg 92%
    19:00 +11°C° 0.1 mm 6 mps 734 mmHg 93%
    20:00 +11°C° 0.1 mm 6 mps 734 mmHg 92%
    21:00 +11°C° 0.1 mm 6 mps 734 mmHg 92%
    22:00 +12°C° 0.1 mm 5 mps 734 mmHg 91%
    23:00 +10°C° 0 mm 5 mps 734 mmHg 91%

    24 May, Friday

    Time Temperature Precipitation Wind Pressure Humidity
    00:00 +10°C° 0 mm 5 mps 734 mmHg 91%
    01:00 +10°C° 0 mm 5 mps 734 mmHg 91%
    02:00 +11°C° 0.2 mm 4 mps 734 mmHg 92%
    03:00 +10°C° 0.2 mm 4 mps 734 mmHg 92%
    04:00 +10°C° 0.2 mm 4 mps 734 mmHg 92%
    05:00 +10°C° 0.4 mm 4 mps 734 mmHg 90%
    06:00 +10°C° 0.4 mm 4 mps 735 mmHg 89%
    07:00 +10°C° 0.4 mm 4 mps 735 mmHg 88%
    08:00 +10°C° 0.2 mm 4 mps 735 mmHg 86%
    09:00 +11°C° 0.2 mm 3 mps 735 mmHg 83%
    10:00 +12°C° 0.2 mm 3 mps 735 mmHg 80%
    11:00 +13°C° 0.1 mm 3 mps 734 mmHg 77%
    12:00 +14°C° 0.1 mm 3 mps 734 mmHg 75%
    13:00 +16°C° 0.1 mm 3 mps 734 mmHg 72%
    14:00 +17°C° 0 mm 3 mps 734 mmHg 71%
    15:00 +17°C° 0 mm 3 mps 734 mmHg 71%
    16:00 +17°C° 0 mm 3 mps 734 mmHg 70%
    17:00 +17°C° 0 mm 2 mps 733 mmHg 73%
    18:00 +16°C° 0 mm 2 mps 733 mmHg 76%
    19:00 +15°C° 0 mm 2 mps 733 mmHg 78%
    20:00 +14°C° 0 mm 2 mps 733 mmHg 80%
    21:00 +13°C° 0 mm 2 mps 733 mmHg 81%
    22:00 +12°C° 0 mm 2 mps 733 mmHg 83%
    23:00 +10°C° 0 mm 2 mps 733 mmHg 83%

    25 May, Saturday

    Time Temperature Precipitation Wind Pressure Humidity
    00:00 +10°C° 0 mm 2 mps 733 mmHg 84%
    01:00 +9°C° 0 mm 2 mps 733 mmHg 85%
    02:00 +9°C° 0 mm 2 mps 733 mmHg 86%
    03:00 +9°C° 0 mm 2 mps 733 mmHg 87%
    04:00 +9°C° 0 mm 3 mps 733 mmHg 88%
    05:00 +10°C° 0 mm 3 mps 733 mmHg 85%
    06:00 +12°C° 0 mm 3 mps 733 mmHg 81%
    07:00 +14°C° 0 mm 4 mps 733 mmHg 78%
    08:00 +15°C° 0.2 mm 4 mps 733 mmHg 75%
    09:00 +16°C° 0.2 mm 5 mps 733 mmHg 72%
    10:00 +17°C° 0.2 mm 5 mps 733 mmHg 69%
    11:00 +17°C° 0.8 mm 5 mps 733 mmHg 71%
    12:00 +17°C° 0.8 mm 6 mps 733 mmHg 73%
    13:00 +17°C° 0.8 mm 6 mps 732 mmHg 75%
    14:00 +17°C° 0.1 mm 6 mps 732 mmHg 72%
    15:00 +17°C° 0.1 mm 6 mps 732 mmHg 69%
    16:00 +17°C° 0.1 mm 6 mps 732 mmHg 66%
    17:00 +15°C° 0 mm 5 mps 732 mmHg 72%
    18:00 +14°C° 0 mm 4 mps 733 mmHg 77%
    19:00 +12°C° 0 mm 3 mps 733 mmHg 83%
    20:00 +11°C° 0 mm 3 mps 733 mmHg 85%
    21:00 +10°C° 0 mm 2 mps 733 mmHg 88%
    22:00 +9°C° 0 mm 2 mps 733 mmHg 90%
    23:00 +9°C° 0 mm 2 mps 733 mmHg 90%

    26 May, Sunday

    Time Temperature Precipitation Wind Pressure Humidity
    00:00 +9°C° 0 mm 3 mps 733 mmHg 89%
    01:00 +9°C° 0 mm 3 mps 733 mmHg 88%
    02:00 +9°C° 0 mm 3 mps 733 mmHg 88%
    03:00 +8°C° 0 mm 3 mps 733 mmHg 87%
    04:00 +7°C° 0 mm 4 mps 732 mmHg 86%
    05:00 +8°C° 0 mm 4 mps 732 mmHg 84%
    06:00 +9°C° 0 mm 5 mps 732 mmHg 81%
    07:00 +10°C° 0 mm 6 mps 732 mmHg 79%
    08:00 +11°C° 0.1 mm 6 mps 732 mmHg 76%
    09:00 +11°C° 0.1 mm 7 mps 732 mmHg 73%
    10:00 +12°C° 0.1 mm 7 mps 732 mmHg 71%
    11:00 +12°C° 0 mm 7 mps 732 mmHg 70%
    12:00 +12°C° 0 mm 7 mps 732 mmHg 70%
    13:00 +13°C° 0 mm 6 mps 732 mmHg 69%
    14:00 +13°C° 0 mm 6 mps 732 mmHg 70%
    15:00 +13°C° 0 mm 6 mps 732 mmHg 70%
    16:00 +13°C° 0 mm 6 mps 732 mmHg 71%
    17:00 +12°C° 0 mm 5 mps 732 mmHg 73%
    18:00 +11°C° 0 mm 4 mps 732 mmHg 76%
    19:00 +11°C° 0 mm 3 mps 731 mmHg 79%
    20:00 +10°C° 0 mm 3 mps 732 mmHg 79%
    21:00 +9°C° 0 mm 3 mps 732 mmHg 79%
    22:00 +9°C° 0 mm 3 mps 732 mmHg 78%
    23:00 +8°C° 0.1 mm 3 mps 732 mmHg 81%
    Show more